,,,PA_Meas_PMT16A,,PR_Meas_QMR101_102,,RH_Meas_QMH101,,SR_Meas_QMS101,,TA_Meas_QMH101,,GenWind,,GenWind,
date,time,status,PA,status,PR,status,RH,status,SR,status,TA,status,DirAvg,status,SpdAvg,
2012-08-20, 00:00:05,VALID,1001.45,VALID,0,VALID,85.6577,VALID,0,VALID,24.5209,VALID,116,VALID,0.939062,
2012-08-20, 00:01:05,VALID,1001.44,VALID,0,VALID,85.6349,VALID,0,VALID,24.519,VALID,116,VALID,0.804688,
2012-08-20, 00:02:05,VALID,1001.48,VALID,0,VALID,85.6806,VALID,0,VALID,24.5404,VALID,132,VALID,0.926562,
2012-08-20, 00:03:05,VALID,1001.44,VALID,0,VALID,85.7188,VALID,0,VALID,24.519,VALID,130,VALID,1.11641,
2012-08-20, 00:04:05,VALID,1001.47,VALID,0,VALID,86.3902,VALID,0,VALID,24.5599,VALID,126,VALID,0.896484,
2012-08-20, 00:05:05,VALID,1001.46,VALID,0,VALID,86.2681,VALID,0,VALID,24.5209,VALID,126,VALID,1.04492,
2012-08-20, 00:06:05,VALID,1001.44,VALID,0,VALID,86.3368,VALID,0,VALID,24.5209,VALID,126,VALID,1.09687,
2012-08-20, 00:07:05,VALID,1001.44,VALID,0,VALID,86.3292,VALID,0,VALID,24.5013,VALID,137,VALID,1.28789,
2012-08-20, 00:08:05,VALID,1001.4,VALID,0,VALID,86.8251,VALID,0.104696,VALID,24.48,VALID,133,VALID,0.950781,
2012-08-20, 00:09:05,VALID,1001.38,VALID,0,VALID,85.7569,VALID,0,VALID,24.4818,VALID,127,VALID,1.51797,
2012-08-20, 00:10:05,VALID,1001.37,VALID,0,VALID,86.1155,VALID,0,VALID,24.5013,VALID,137,VALID,1.19258,
2012-08-20, 00:11:05,VALID,1001.34,VALID,0,VALID,86.1003,VALID,0,VALID,24.48,VALID,133,VALID,1.46641,
2012-08-20, 00:12:05,VALID,1001.33,VALID,0,VALID,85.8409,VALID,0,VALID,24.5013,VALID,135,VALID,1.25781,
2012-08-20, 00:13:05,VALID,1001.3,VALID,0,VALID,85.5128,VALID,0,VALID,24.5013,VALID,131,VALID,1.4668,
2012-08-20, 00:14:05,VALID,1001.32,VALID,0,VALID,85.4823,VALID,0,VALID,24.5404,VALID,131,VALID,1.51055,
2012-08-20, 00:15:05,VALID,1001.31,VALID,0,VALID,85.0016,VALID,0,VALID,24.558,VALID,127,VALID,1.91289,
2012-08-20, 00:16:05,VALID,1001.3,VALID,0,VALID,85.0855,VALID,0,VALID,24.5794,VALID,122,VALID,1.56289,
2012-08-20, 00:17:05,VALID,1001.31,VALID,0,VALID,85.5967,VALID,0,VALID,24.5599,VALID,109,VALID,1.14453,
2012-08-20, 00:18:05,VALID,1001.31,VALID,0,VALID,85.4899,VALID,0,VALID,24.5599,VALID,116,VALID,1.32266,
2012-08-20, 00:19:05,VALID,1001.29,VALID,0,VALID,85.4823,VALID,0,VALID,24.5385,VALID,122,VALID,1.37969,
2012-08-20, 00:20:05,VALID,1001.27,VALID,0,VALID,85.4899,VALID,0,VALID,24.5599,VALID,119,VALID,1.3832,
2012-08-20, 00:21:05,VALID,1001.25,VALID,0,VALID,85.055,VALID,0,VALID,24.5385,VALID,126,VALID,1.81562,
2012-08-20, 00:22:05,VALID,1001.23,VALID,0,VALID,84.9253,VALID,0,VALID,24.5989,VALID,132,VALID,2.00703,
2012-08-20, 00:23:05,VALID,1001.22,VALID,0,VALID,85.261,VALID,0,VALID,24.5775,VALID,144,VALID,1.34766,
2012-08-20, 00:24:05,VALID,1001.22,VALID,0,VALID,84.4904,VALID,0,VALID,24.5775,VALID,132,VALID,2.3457,
2012-08-20, 00:25:05,VALID,1001.2,VALID,0,VALID,84.5896,VALID,0,VALID,24.6184,VALID,138,VALID,1.55,
2012-08-20, 00:26:05,VALID,1001.19,VALID,0,VALID,84.4752,VALID,0,VALID,24.6184,VALID,140,VALID,1.59492,
2012-08-20, 00:27:05,VALID,1001.18,VALID,0,VALID,84.6964,VALID,0,VALID,24.638,VALID,144,VALID,1.49219,
2012-08-20, 00:28:05,VALID,1001.17,VALID,0,VALID,84.8185,VALID,0,VALID,24.6184,VALID,142,VALID,1.48008,
2012-08-20, 00:29:05,VALID,1001.2,VALID,0,VALID,85.116,VALID,0,VALID,24.6184,VALID,134,VALID,1.66992,
2012-08-20, 00:30:05,VALID,1001.23,VALID,0,VALID,85.4212,VALID,0,VALID,24.5794,VALID,144,VALID,1.47852,
2012-08-20, 00:31:05,VALID,1001.22,VALID,0,VALID,85.0016,VALID,0,VALID,24.5989,VALID,141,VALID,1.8082,
2012-08-20, 00:32:05,VALID,1001.19,VALID,0,VALID,84.994,VALID,0,VALID,24.5794,VALID,146,VALID,1.93008,
2012-08-20, 00:33:05,VALID,1001.2,VALID,0,VALID,84.6583,VALID,0,VALID,24.5989,VALID,140,VALID,2.43125,
2012-08-20, 00:34:05,VALID,1001.17,VALID,0,VALID,84.6583,VALID,0,VALID,24.6184,VALID,138,VALID,2.07383,
2012-08-20, 00:35:05,VALID,1001.15,VALID,0,VALID,84.5896,VALID,0,VALID,24.638,VALID,138,VALID,1.96641,
2012-08-20, 00:36:05,VALID,1001.12,VALID,0,VALID,84.0555,VALID,0,VALID,24.6184,VALID,144,VALID,2.59336,
2012-08-20, 00:37:05,VALID,1001.06,VALID,0,VALID,83.6969,VALID,0,VALID,24.6361,VALID,130,VALID,2.37617,
2012-08-20, 00:38:05,VALID,1001.07,VALID,0,VALID,83.6435,VALID,0,VALID,24.677,VALID,137,VALID,1.90547,
2012-08-20, 00:39:05,VALID,1001.07,VALID,0,VALID,83.3078,VALID,0,VALID,24.6751,VALID,141,VALID,2.3707,
2012-08-20, 00:40:05,VALID,1001.05,VALID,0,VALID,83.758,VALID,0,VALID,24.677,VALID,130,VALID,2.30742,
2012-08-20, 00:41:05,VALID,1001.05,VALID,0,VALID,83.9334,VALID,0,VALID,24.6789,VALID,140,VALID,1.83008,
2012-08-20, 00:42:05,VALID,1001.06,VALID,0,VALID,84.0403,VALID,0,VALID,24.6184,VALID,135,VALID,2.51172,
2012-08-20, 00:43:05,VALID,1001.06,VALID,0,VALID,83.7198,VALID,0,VALID,24.6575,VALID,136,VALID,2.45391,
2012-08-20, 00:44:05,VALID,1001.05,VALID,0,VALID,83.2239,VALID,0,VALID,24.6575,VALID,139,VALID,3.23125,
2012-08-20, 00:45:05,VALID,1001.07,VALID,0,VALID,83.6817,VALID,0,VALID,24.6575,VALID,131,VALID,2.43047,
2012-08-20, 00:46:05,VALID,1001.01,VALID,0,VALID,83.8572,VALID,0,VALID,24.6575,VALID,141,VALID,2.17148,
2012-08-20, 00:47:04,VALID,1001.01,VALID,0,VALID,83.8495,VALID,0,VALID,24.638,VALID,139,VALID,2.01328,
2012-08-20, 00:48:04,VALID,1001.02,VALID,0,VALID,83.8495,VALID,0,VALID,24.638,VALID,136,VALID,2.15937,
2012-08-20, 00:49:04,VALID,1000.99,VALID,0,VALID,83.9334,VALID,0,VALID,24.6361,VALID,131,VALID,1.75586,
2012-08-20, 00:50:04,VALID,1000.97,VALID,0,VALID,83.346,VALID,0,VALID,24.638,VALID,137,VALID,2.93828,
2012-08-20, 00:51:04,VALID,1000.99,VALID,0,VALID,83.3383,VALID,0,VALID,24.677,VALID,133,VALID,1.86172,
2012-08-20, 00:52:04,VALID,1001.01,VALID,0,VALID,83.6054,VALID,0,VALID,24.6556,VALID,141,VALID,1.82578,
2012-08-20, 00:53:04,VALID,1001,VALID,0,VALID,83.6054,VALID,0,VALID,24.6575,VALID,145,VALID,1.82383,
2012-08-20, 00:54:04,VALID,1001.01,VALID,0,VALID,83.7809,VALID,0,VALID,24.6361,VALID,143,VALID,1.51289,
2012-08-20, 00:55:04,VALID,1001.01,VALID,0,VALID,83.9945,VALID,0,VALID,24.6361,VALID,156,VALID,1.26563,
2012-08-20, 00:56:04,VALID,1001,VALID,0,VALID,83.4223,VALID,0,VALID,24.6166,VALID,148,VALID,1.87578,
2012-08-20, 00:57:04,VALID,1001.03,VALID,0,VALID,83.6893,VALID,0,VALID,24.6556,VALID,154,VALID,1.51406,
2012-08-20, 00:58:04,VALID,1001.03,VALID,0,VALID,83.4528,VALID,0,VALID,24.6751,VALID,188,VALID,1.45469,
2012-08-20, 00:59:04,VALID,1001.06,VALID,0,VALID,82.9798,VALID,0,VALID,24.7142,VALID,181,VALID,1.24609,
2012-08-20, 01:00:04,VALID,1001.05,VALID,0,VALID,82.4609,VALID,0,VALID,24.7142,VALID,179,VALID,2.10195,
2012-08-20, 01:01:04,VALID,1001.05,VALID,0,VALID,82.2168,VALID,0,VALID,24.7532,VALID,183,VALID,1.80898,
2012-08-20, 01:02:04,VALID,1001.06,VALID,0,VALID,82.4762,VALID,0.104696,VALID,24.7727,VALID,178,VALID,1.44727,
2012-08-20, 01:03:04,VALID,1001.04,VALID,0,VALID,81.9116,VALID,0,VALID,24.7922,VALID,185,VALID,1.72773,
2012-08-20, 01:04:04,VALID,1001.04,VALID,0,VALID,81.553,VALID,0,VALID,24.7922,VALID,178,VALID,1.59648,
2012-08-20, 01:05:04,VALID,1001.06,VALID,0,VALID,81.4157,VALID,0,VALID,24.8527,VALID,187,VALID,1.85195,
2012-08-20, 01:06:04,VALID,1001.05,VALID,0,VALID,80.935,VALID,0,VALID,24.8508,VALID,178,VALID,1.56836,
2012-08-20, 01:07:04,VALID,1001.04,VALID,0,VALID,80.5688,VALID,0,VALID,24.8917,VALID,175,VALID,1.88516,
2012-08-20, 01:08:04,VALID,1001.03,VALID,0,VALID,80.7595,VALID,0,VALID,24.8898,VALID,184,VALID,1.53437,
2012-08-20, 01:09:04,VALID,1001.02,VALID,0,VALID,80.7366,VALID,0,VALID,24.9093,VALID,164,VALID,1.4918,
2012-08-20, 01:10:04,VALID,1000.99,VALID,0,VALID,80.9045,VALID,0,VALID,24.9093,VALID,171,VALID,1.70586,
2012-08-20, 01:11:04,VALID,1000.96,VALID,0,VALID,80.668,VALID,0,VALID,24.9308,VALID,158,VALID,1.53711,
2012-08-20, 01:12:04,VALID,1000.97,VALID,0,VALID,81.1486,VALID,0.104696,VALID,24.9093,VALID,156,VALID,1.1668,
2012-08-20, 01:13:04,VALID,1000.97,VALID,0,VALID,81.0113,VALID,0,VALID,24.8703,VALID,163,VALID,1.29492,
2012-08-20, 01:14:04,VALID,1000.94,VALID,0,VALID,81.1868,VALID,0,VALID,24.8722,VALID,174,VALID,1.30977,
2012-08-20, 01:15:04,VALID,1000.94,VALID,0,VALID,81.6217,VALID,0,VALID,24.8508,VALID,168,VALID,1.16602,
2012-08-20, 01:16:04,VALID,1000.92,VALID,0,VALID,81.5072,VALID,0,VALID,24.8313,VALID,182,VALID,1.43398,
2012-08-20, 01:17:04,VALID,1000.93,VALID,0,VALID,81.6674,VALID,0,VALID,24.8332,VALID,145,VALID,1.325,
2012-08-20, 01:18:04,VALID,1000.93,VALID,0,VALID,81.8811,VALID,0,VALID,24.8117,VALID,159,VALID,1.325,
2012-08-20, 01:19:04,VALID,1000.91,VALID,0,VALID,82.5754,VALID,0,VALID,24.7727,VALID,141,VALID,1.03867,
2012-08-20, 01:20:04,VALID,1000.91,VALID,0,VALID,82.5449,VALID,0,VALID,24.7551,VALID,134,VALID,1.02656,
2012-08-20, 01:21:04,VALID,1000.91,VALID,0,VALID,82.3617,VALID,0,VALID,24.7356,VALID,146,VALID,1.06758,
2012-08-20, 01:22:04,VALID,1000.89,VALID,0,VALID,82.5677,VALID,0,VALID,24.7142,VALID,146,VALID,1.05703,
2012-08-20, 01:23:04,VALID,1000.89,VALID,0,VALID,82.9798,VALID,0,VALID,24.716,VALID,143,VALID,1.12344,
2012-08-20, 01:24:04,VALID,1000.88,VALID,0,VALID,82.8653,VALID,0,VALID,24.6751,VALID,141,VALID,1.3625,
2012-08-20, 01:25:04,VALID,1000.89,VALID,0,VALID,83.3765,VALID,0,VALID,24.677,VALID,120,VALID,1.11641,
2012-08-20, 01:26:04,VALID,1000.88,VALID,0,VALID,82.9187,VALID,0,VALID,24.6361,VALID,132,VALID,1.42305,
2012-08-20, 01:27:04,VALID,1000.86,VALID,0,VALID,83.4909,VALID,0,VALID,24.6575,VALID,134,VALID,1.03125,
2012-08-20, 01:28:04,VALID,1000.84,VALID,0,VALID,83.7656,VALID,0,VALID,24.6361,VALID,144,VALID,1.09219,
2012-08-20, 01:29:04,VALID,1000.84,VALID,0,VALID,83.6969,VALID,0,VALID,24.5775,VALID,136,VALID,0.85,
2012-08-20, 01:30:04,VALID,1000.81,VALID,0,VALID,83.4909,VALID,0,VALID,24.5775,VALID,136,VALID,1.33242,
2012-08-20, 01:31:04,VALID,1000.79,VALID,0,VALID,82.934,VALID,0,VALID,24.638,VALID,127,VALID,2.20469,
2012-08-20, 01:32:04,VALID,1000.83,VALID,0,VALID,82.8195,VALID,0,VALID,24.6575,VALID,143,VALID,2.24453,
2012-08-20, 01:33:04,VALID,1000.81,VALID,0,VALID,82.9035,VALID,0,VALID,24.6556,VALID,139,VALID,1.84297,
2012-08-20, 01:34:04,VALID,1000.81,VALID,0,VALID,82.7966,VALID,0,VALID,24.677,VALID,142,VALID,1.88594,
2012-08-20, 01:35:04,VALID,1000.82,VALID,0,VALID,83.3536,VALID,0,VALID,24.6575,VALID,135,VALID,1.71523,
2012-08-20, 01:36:04,VALID,1000.85,VALID,0,VALID,83.4757,VALID,0,VALID,24.638,VALID,143,VALID,1.84961,
2012-08-20, 01:37:04,VALID,1000.85,VALID,0,VALID,83.7732,VALID,0,VALID,24.6184,VALID,137,VALID,1.51211,
2012-08-20, 01:38:04,VALID,1000.83,VALID,0,VALID,83.8648,VALID,0,VALID,24.5989,VALID,146,VALID,1.49141,
2012-08-20, 01:39:04,VALID,1000.83,VALID,0,VALID,83.552,VALID,0,VALID,24.5775,VALID,151,VALID,1.86836,
2012-08-20, 01:40:04,VALID,1000.8,VALID,0,VALID,82.9111,VALID,0,VALID,24.5971,VALID,144,VALID,2.05742,
2012-08-20, 01:41:04,VALID,1000.76,VALID,0,VALID,83.2773,VALID,0,VALID,24.6361,VALID,138,VALID,1.87656,
2012-08-20, 01:42:04,VALID,1000.71,VALID,0,VALID,82.9721,VALID,0,VALID,24.6166,VALID,156,VALID,2.56133,
2012-08-20, 01:43:04,VALID,1000.74,VALID,0,VALID,82.728,VALID,0,VALID,24.6751,VALID,138,VALID,1.69062,
2012-08-20, 01:44:04,VALID,1000.72,VALID,0,VALID,82.7814,VALID,0,VALID,24.6556,VALID,136,VALID,1.6918,
2012-08-20, 01:45:04,VALID,1000.71,VALID,0,VALID,82.9645,VALID,0,VALID,24.6361,VALID,135,VALID,1.42266,
2012-08-20, 01:46:04,VALID,1000.72,VALID,0,VALID,83.3307,VALID,0,VALID,24.6166,VALID,150,VALID,1.10391,
2012-08-20, 01:47:04,VALID,1000.7,VALID,0,VALID,83.1552,VALID,0,VALID,24.5971,VALID,141,VALID,1.51758,
2012-08-20, 01:48:04,VALID,1000.72,VALID,0,VALID,83.5749,VALID,0,VALID,24.5971,VALID,133,VALID,1.1957,
2012-08-20, 01:49:04,VALID,1000.73,VALID,0,VALID,83.3155,VALID,0,VALID,24.5775,VALID,143,VALID,1.45469,
2012-08-20, 01:50:04,VALID,1000.73,VALID,0,VALID,83.3002,VALID,0,VALID,24.5775,VALID,133,VALID,1.87773,
2012-08-20, 01:51:04,VALID,1000.78,VALID,0,VALID,83.0026,VALID,0,VALID,24.5989,VALID,144,VALID,1.66523,
2012-08-20, 01:52:04,VALID,1000.78,VALID,0,VALID,83.1476,VALID,0,VALID,24.6184,VALID,140,VALID,1.77539,
2012-08-20, 01:53:04,VALID,1000.77,VALID,0,VALID,83.0713,VALID,0,VALID,24.6184,VALID,138,VALID,1.5457,
2012-08-20, 01:54:04,VALID,1000.75,VALID,0,VALID,82.8653,VALID,0,VALID,24.5971,VALID,133,VALID,1.45859,
2012-08-20, 01:55:04,VALID,1000.77,VALID,0,VALID,83.3078,VALID,0,VALID,24.6184,VALID,134,VALID,1.27344,
2012-08-20, 01:56:04,VALID,1000.76,VALID,0,VALID,83.2163,VALID,0,VALID,24.5989,VALID,141,VALID,1.39492,
2012-08-20, 01:57:04,VALID,1000.77,VALID,0,VALID,83.7198,VALID,0,VALID,24.5794,VALID,131,VALID,1.0668,
2012-08-20, 01:58:04,VALID,1000.75,VALID,0,VALID,83.5825,VALID,0,VALID,24.5794,VALID,120,VALID,1.1832,
2012-08-20, 01:59:04,VALID,1000.68,VALID,0,VALID,83.4909,VALID,0,VALID,24.5599,VALID,111,VALID,1.47734,
2012-08-20, 02:00:04,VALID,1000.67,VALID,0,VALID,83.3002,VALID,0,VALID,24.5404,VALID,115,VALID,0.969141,
2012-08-20, 02:01:04,VALID,1000.65,VALID,0,VALID,82.8424,VALID,0,VALID,24.5404,VALID,116,VALID,0.876562,
2012-08-20, 02:02:04,VALID,1000.63,VALID,0,VALID,83.1629,VALID,0,VALID,24.5599,VALID,116,VALID,1.08008,
2012-08-20, 02:03:04,VALID,1000.63,VALID,0,VALID,83.0408,VALID,0,VALID,24.5599,VALID,116,VALID,0.653125,
2012-08-20, 02:04:04,VALID,1000.62,VALID,0,VALID,83.1018,VALID,0,VALID,24.5404,VALID,116,VALID,0.432031,
2012-08-20, 02:05:04,VALID,1000.63,VALID,0,VALID,83.3307,VALID,0,VALID,24.5599,VALID,116,VALID,0.321484,
2012-08-20, 02:06:04,VALID,1000.64,VALID,0,VALID,83.7656,VALID,0,VALID,24.5404,VALID,133,VALID,0.624609,
2012-08-20, 02:07:04,VALID,1000.66,VALID,0,VALID,82.9645,VALID,0,VALID,24.5209,VALID,117,VALID,0.912109,
2012-08-20, 02:08:04,VALID,1000.67,VALID,0,VALID,82.8424,VALID,0,VALID,24.5404,VALID,158,VALID,1.58594,
2012-08-20, 02:09:04,VALID,1000.69,VALID,0,VALID,82.4152,VALID,0,VALID,24.5599,VALID,145,VALID,1.60977,
2012-08-20, 02:10:04,VALID,1000.7,VALID,0,VALID,82.316,VALID,0,VALID,24.5989,VALID,161,VALID,1.48242,
2012-08-20, 02:11:04,VALID,1000.71,VALID,0,VALID,82.7127,VALID,0,VALID,24.5971,VALID,150,VALID,1.22812,
2012-08-20, 02:12:04,VALID,1000.69,VALID,0,VALID,83.0103,VALID,0,VALID,24.5989,VALID,169,VALID,1.59414,
2012-08-20, 02:13:04,VALID,1000.71,VALID,0,VALID,82.4457,VALID,0,VALID,24.6184,VALID,158,VALID,2.02773,
2012-08-20, 02:14:04,VALID,1000.72,VALID,0,VALID,82.9645,VALID,0,VALID,24.6184,VALID,173,VALID,1.2625,
2012-08-20, 02:15:04,VALID,1000.72,VALID,0,VALID,82.8272,VALID,0,VALID,24.6184,VALID,166,VALID,1.76406,
2012-08-20, 02:16:04,VALID,1000.74,VALID,0,VALID,82.6212,VALID,0,VALID,24.638,VALID,174,VALID,1.85273,
2012-08-20, 02:17:04,VALID,1000.73,VALID,0,VALID,82.8043,VALID,0,VALID,24.638,VALID,171,VALID,1.8082,
2012-08-20, 02:18:04,VALID,1000.72,VALID,0,VALID,82.7585,VALID,0,VALID,24.6575,VALID,169,VALID,1.40273,
2012-08-20, 02:19:04,VALID,1000.72,VALID,0,VALID,82.6593,VALID,0,VALID,24.677,VALID,170,VALID,1.84297,
2012-08-20, 02:20:04,VALID,1000.72,VALID,0,VALID,82.5754,VALID,0,VALID,24.6361,VALID,174,VALID,1.86133,
2012-08-20, 02:21:04,VALID,1000.67,VALID,0,VALID,82.6974,VALID,0,VALID,24.6575,VALID,163,VALID,1.68477,
2012-08-20, 02:22:04,VALID,1000.64,VALID,0,VALID,82.6059,VALID,0,VALID,24.6575,VALID,164,VALID,2.11797,
2012-08-20, 02:23:04,VALID,1000.63,VALID,0,VALID,82.6364,VALID,0,VALID,24.638,VALID,171,VALID,1.57734,
2012-08-20, 02:24:04,VALID,1000.6,VALID,0,VALID,82.3312,VALID,0,VALID,24.638,VALID,175,VALID,1.42422,
2012-08-20, 02:25:04,VALID,1000.56,VALID,0,VALID,82.2244,VALID,0,VALID,24.638,VALID,159,VALID,1.57031,
2012-08-20, 02:26:04,VALID,1000.52,VALID,0,VALID,82.5143,VALID,0,VALID,24.6184,VALID,156,VALID,1.1332,
2012-08-20, 02:27:04,VALID,1000.52,VALID,0,VALID,83.0789,VALID,0,VALID,24.5989,VALID,154,VALID,1.05508,
2012-08-20, 02:28:04,VALID,1000.5,VALID,0,VALID,82.5296,VALID,0,VALID,24.5599,VALID,145,VALID,1.3832,
2012-08-20, 02:29:04,VALID,1000.49,VALID,0,VALID,82.8195,VALID,0,VALID,24.5599,VALID,151,VALID,1.43594,
2012-08-20, 02:30:04,VALID,1000.47,VALID,0,VALID,83.0637,VALID,0,VALID,24.5404,VALID,144,VALID,1.09453,
2012-08-20, 02:31:04,VALID,1000.46,VALID,0,VALID,82.9874,VALID,0,VALID,24.5209,VALID,150,VALID,1.1418,
2012-08-20, 02:32:04,VALID,1000.45,VALID,0,VALID,83.1857,VALID,0,VALID,24.5013,VALID,150,VALID,0.84375,
2012-08-20, 02:33:04,VALID,1000.43,VALID,0,VALID,83.6512,VALID,0,VALID,24.4604,VALID,157,VALID,0.695313,
2012-08-20, 02:34:04,VALID,1000.4,VALID,0,VALID,82.9721,VALID,0,VALID,24.4623,VALID,147,VALID,1.32813,
2012-08-20, 02:35:04,VALID,1000.39,VALID,0,VALID,83.2544,VALID,0,VALID,24.4623,VALID,162,VALID,1.19141,
2012-08-20, 02:36:04,VALID,1000.38,VALID,0,VALID,83.262,VALID,0,VALID,24.4623,VALID,174,VALID,1.19883,
2012-08-20, 02:37:04,VALID,1000.37,VALID,0,VALID,83.2239,VALID,0,VALID,24.4818,VALID,170,VALID,1.44648,
2012-08-20, 02:38:04,VALID,1000.37,VALID,0,VALID,83.1095,VALID,0,VALID,24.4623,VALID,171,VALID,1.3625,
2012-08-20, 02:39:04,VALID,1000.36,VALID,0,VALID,83.2163,VALID,0,VALID,24.4818,VALID,167,VALID,1.36641,
2012-08-20, 02:40:04,VALID,1000.33,VALID,0,VALID,83.3917,VALID,0,VALID,24.4604,VALID,170,VALID,1.71328,
2012-08-20, 02:41:04,VALID,1000.33,VALID,0,VALID,83.3689,VALID,0,VALID,24.4623,VALID,162,VALID,1.83945,
2012-08-20, 02:42:04,VALID,1000.3,VALID,0,VALID,83.2544,VALID,0,VALID,24.4623,VALID,157,VALID,1.88164,
2012-08-20, 02:43:04,VALID,1000.33,VALID,0,VALID,83.3078,VALID,0,VALID,24.4233,VALID,158,VALID,1.7082,
2012-08-20, 02:44:04,VALID,1000.31,VALID,0,VALID,83.5215,VALID,0,VALID,24.4233,VALID,152,VALID,1.32891,
2012-08-20, 02:45:04,VALID,1000.31,VALID,0,VALID,83.8419,VALID,0,VALID,24.3842,VALID,141,VALID,1.15469,
2012-08-20, 02:46:04,VALID,1000.27,VALID,0,VALID,84.1471,VALID,0,VALID,24.3257,VALID,147,VALID,1.30352,
2012-08-20, 02:47:04,VALID,1000.27,VALID,0,VALID,84.4141,VALID,0,VALID,24.2866,VALID,142,VALID,1.2207,
2012-08-20, 02:48:04,VALID,1000.21,VALID,0,VALID,84.3302,VALID,0,VALID,24.2671,VALID,140,VALID,1.21719,
2012-08-20, 02:49:04,VALID,1000.18,VALID,0,VALID,84.292,VALID,0,VALID,24.2671,VALID,154,VALID,1.05352,
2012-08-20, 02:50:04,VALID,1000.16,VALID,0,VALID,84.3531,VALID,0,VALID,24.2476,VALID,142,VALID,0.691016,
2012-08-20, 02:51:04,VALID,1000.14,VALID,0,VALID,84.3302,VALID,0,VALID,24.2281,VALID,132,VALID,1.04531,
2012-08-20, 02:52:04,VALID,1000.1,VALID,0,VALID,84.2157,VALID,0,VALID,24.2281,VALID,118,VALID,0.760547,
2012-08-20, 02:53:04,VALID,1000.05,VALID,0,VALID,84.5438,VALID,0,VALID,24.2086,VALID,117,VALID,0.603516,
2012-08-20, 02:54:04,VALID,1000.05,VALID,0,VALID,84.2997,VALID,0,VALID,24.1696,VALID,111,VALID,1.01055,
2012-08-20, 02:55:04,VALID,1000.05,VALID,0,VALID,84.5438,VALID,0,VALID,24.1696,VALID,91,VALID,0.726172,
2012-08-20, 02:56:04,VALID,1000.06,VALID,0,VALID,84.7117,VALID,0,VALID,24.1305,VALID,92,VALID,0.898438,
2012-08-20, 02:57:04,VALID,1000.06,VALID,0,VALID,84.8414,VALID,0,VALID,24.111,VALID,120,VALID,0.952344,
2012-08-20, 02:58:04,VALID,1000.11,VALID,0,VALID,85.1466,VALID,0,VALID,24.0915,VALID,116,VALID,0.739062,
2012-08-20, 02:59:04,VALID,1000.12,VALID,0,VALID,85.2,VALID,0,VALID,24.072,VALID,128,VALID,0.925781,
2012-08-20, 03:00:04,VALID,1000.11,VALID,0,VALID,85.1542,VALID,0,VALID,24.072,VALID,137,VALID,0.857422,
2012-08-20, 03:01:04,VALID,1000.13,VALID,0,VALID,85.1847,VALID,0,VALID,24.072,VALID,140,VALID,1.15703,
2012-08-20, 03:02:04,VALID,1000.14,VALID,0,VALID,84.8643,VALID,0,VALID,24.111,VALID,156,VALID,1.16133,
2012-08-20, 03:03:04,VALID,1000.16,VALID,0,VALID,84.7269,VALID,0,VALID,24.111,VALID,151,VALID,1.38945,
2012-08-20, 03:04:04,VALID,1000.15,VALID,0,VALID,84.8261,VALID,0,VALID,24.1305,VALID,162,VALID,1.07695,
2012-08-20, 03:05:04,VALID,1000.16,VALID,0,VALID,84.5362,VALID,0,VALID,24.1305,VALID,160,VALID,1.18281,
2012-08-20, 03:06:04,VALID,1000.17,VALID,0,VALID,84.498,VALID,0,VALID,24.1696,VALID,160,VALID,0.866406,
2012-08-20, 03:07:04,VALID,1000.16,VALID,0,VALID,84.3912,VALID,0,VALID,24.1891,VALID,171,VALID,1.05938,
2012-08-20, 03:08:04,VALID,1000.16,VALID,0,VALID,84.231,VALID,0,VALID,24.1891,VALID,171,VALID,0.849609,
2012-08-20, 03:09:04,VALID,1000.16,VALID,0,VALID,84.1623,VALID,0,VALID,24.2086,VALID,162,VALID,1.0125,
2012-08-20, 03:10:04,VALID,1000.2,VALID,0,VALID,83.9334,VALID,0,VALID,24.1891,VALID,162,VALID,0.830859,
2012-08-20, 03:11:04,VALID,1000.19,VALID,0,VALID,84.0098,VALID,0,VALID,24.2086,VALID,141,VALID,0.931641,
2012-08-20, 03:12:04,VALID,1000.19,VALID,0,VALID,83.9869,VALID,0,VALID,24.2086,VALID,138,VALID,0.564453,
2012-08-20, 03:13:04,VALID,1000.24,VALID,0,VALID,84.1013,VALID,0,VALID,24.2086,VALID,138,VALID,0.472656,
2012-08-20, 03:14:04,VALID,1000.23,VALID,0,VALID,84.1471,VALID,0,VALID,24.1891,VALID,138,VALID,0.329297,
2012-08-20, 03:15:04,VALID,1000.2,VALID,0,VALID,84.1852,VALID,0,VALID,24.15,VALID,138,VALID,0.273828,
2012-08-20, 03:16:04,VALID,1000.19,VALID,0,VALID,84.1547,VALID,0,VALID,24.1305,VALID,138,VALID,0.0128906,
2012-08-20, 03:17:04,VALID,1000.22,VALID,0,VALID,84.2234,VALID,0,VALID,24.111,VALID,138,VALID,0,
2012-08-20, 03:18:04,VALID,1000.21,VALID,0,VALID,84.3149,VALID,0,VALID,24.072,VALID,138,VALID,0,
2012-08-20, 03:19:04,VALID,1000.23,VALID,0,VALID,84.4675,VALID,0,VALID,24.0525,VALID,138,VALID,0,
2012-08-20, 03:20:04,VALID,1000.22,VALID,0,VALID,84.6659,VALID,0,VALID,24.0134,VALID,138,VALID,0.0140625,
2012-08-20, 03:21:04,VALID,1000.22,VALID,0,VALID,85.1771,VALID,0,VALID,23.9939,VALID,138,VALID,0,
2012-08-20, 03:22:04,VALID,1000.24,VALID,0,VALID,85.3831,VALID,0,VALID,23.9549,VALID,138,VALID,0,
2012-08-20, 03:23:04,VALID,1000.22,VALID,0,VALID,85.4289,VALID,0,VALID,23.9159,VALID,138,VALID,0.0480469,
2012-08-20, 03:24:04,VALID,1000.22,VALID,0,VALID,85.9019,VALID,0,VALID,23.8963,VALID,143,VALID,0.24375,
2012-08-20, 03:25:04,VALID,1000.21,VALID,0,VALID,86.7335,VALID,0,VALID,23.8768,VALID,143,VALID,0.0347656,
2012-08-20, 03:26:04,VALID,1000.19,VALID,0,VALID,86.8327,VALID,0,VALID,23.8378,VALID,143,VALID,0,
2012-08-20, 03:27:04,VALID,1000.15,VALID,0,VALID,86.909,VALID,0,VALID,23.7793,VALID,143,VALID,0.034375,
2012-08-20, 03:28:04,VALID,1000.17,VALID,0,VALID,87.0921,VALID,0,VALID,23.7402,VALID,143,VALID,0,
2012-08-20, 03:29:04,VALID,1000.14,VALID,0,VALID,87.8093,VALID,0,VALID,23.7207,VALID,143,VALID,0,
2012-08-20, 03:30:04,VALID,1000.14,VALID,0,VALID,88.0077,VALID,0,VALID,23.6817,VALID,143,VALID,0,
2012-08-20, 03:31:04,VALID,1000.15,VALID,0,VALID,88.0153,VALID,0,VALID,23.625,VALID,143,VALID,0,
2012-08-20, 03:32:04,VALID,1000.13,VALID,0,VALID,88.3052,VALID,0,VALID,23.5646,VALID,143,VALID,0,
2012-08-20, 03:33:04,VALID,1000.13,VALID,0,VALID,88.4426,VALID,0,VALID,23.5061,VALID,143,VALID,0.228125,
2012-08-20, 03:34:04,VALID,1000.17,VALID,0,VALID,88.8469,VALID,0,VALID,23.4475,VALID,143,VALID,0.04375,
2012-08-20, 03:35:04,VALID,1000.18,VALID,0,VALID,89.0224,VALID,0,VALID,23.389,VALID,143,VALID,0,
2012-08-20, 03:36:04,VALID,1000.21,VALID,0,VALID,89.2589,VALID,0.104696,VALID,23.3482,VALID,143,VALID,0.302734,
2012-08-20, 03:37:04,VALID,1000.19,VALID,0,VALID,89.2971,VALID,0.104696,VALID,23.3287,VALID,143,VALID,0.651172,
2012-08-20, 03:38:04,VALID,1000.21,VALID,0,VALID,89.175,VALID,0,VALID,23.3482,VALID,143,VALID,0.762109,
2012-08-20, 03:39:04,VALID,1000.25,VALID,0,VALID,88.908,VALID,0,VALID,23.4067,VALID,143,VALID,0.724219,
2012-08-20, 03:40:04,VALID,1000.25,VALID,0,VALID,88.6638,VALID,0,VALID,23.4067,VALID,142,VALID,0.661328,
2012-08-20, 03:41:04,VALID,1000.23,VALID,0,VALID,88.7096,VALID,0.104696,VALID,23.3677,VALID,142,VALID,0.528516,
2012-08-20, 03:42:04,VALID,1000.21,VALID,0,VALID,89.587,VALID,0.104696,VALID,23.3482,VALID,142,VALID,0.563672,
2012-08-20, 03:43:04,VALID,1000.2,VALID,0,VALID,90.1745,VALID,0.104696,VALID,23.3287,VALID,142,VALID,0.56875,
2012-08-20, 03:44:04,VALID,1000.21,VALID,0,VALID,90.5102,VALID,0,VALID,23.3092,VALID,142,VALID,0.503906,
2012-08-20, 03:45:04,VALID,1000.18,VALID,0,VALID,90.7467,VALID,0.104696,VALID,23.2702,VALID,142,VALID,0.541406,
2012-08-20, 03:46:04,VALID,1000.19,VALID,0,VALID,90.9909,VALID,0.104696,VALID,23.2312,VALID,116,VALID,0.708203,